Location: Callanans Corners
(42.5326°N, 73.8846°W)
Time: 15:17:41
(UTC+00:00)

Cosmos 2208 Rocket - Pass Details

Date: 06 October 2022
Orbit: 753 x 806 km, 74.0° (Epoch: 28 November)

Event Time Altitude Azimuth Distance (km) Brightness Sun altitude
Rises 23:11:57 0° 345° (NNW) 3,296 7.5 -8.9°
Reaches altitude 10° 23:14:28 10° 352° (N) 2,370 6.7 -9.3°
Maximum altitude 23:19:36 44° 64° (ENE) 1,104 4.4 -10.3°
Drops below altitude 10° 23:24:46 10° 136° (SE) 2,377 6.1 -11.2°
Enters shadow 23:26:39 - 142° (SE) 3,069 6.7 -11.6°
